Stations météo

Publicité
Lechfeld, Allemagne (10856): Température de l'air & dewpoint: 19.09.2018 16:00:00 - 25.09.2018 16:00:00 (CEST)Lechfeld, Allemagne (10856): Vitesse du vent & gusts: 19.09.2018 16:00:00 - 25.09.2018 16:00:00 (CEST)Lechfeld, Allemagne (10856): Direction du vent: 19.09.2018 16:00:00 - 25.09.2018 16:00:00 (CEST)Lechfeld, Allemagne (10856): reduced air pressure: 19.09.2018 16:00:00 - 25.09.2018 16:00:00 (CEST)Lechfeld, Allemagne (10856): visibility: 19.09.2018 16:00:00 - 25.09.2018 16:00:00 (CEST)
Date & Time tt [°C] td [°C] ff [km/h] ff [knt] fx [km/h] fx [knt] dd ppp [hPa] vv [km]
25.09.2018 16:00:00 11,3 -0,1 18 10 - - NE 1037,0 50
25.09.2018 15:00:00 11,2 -0,9 18 10 - - NE 1037,2 50
25.09.2018 14:00:00 10,7 -0,2 14 8 - - NE 1037,8 40
25.09.2018 13:00:00 10,1 1,0 14 8 - - ENE 1038,3 40
25.09.2018 12:00:00 9,4 1,4 14 8 - - ENE 1038,8 40
25.09.2018 11:00:00 8,5 1,5 18 10 - - ENE 1038,9 30
25.09.2018 10:00:00 6,9 3,1 14 8 - - NE 1039,2 30
25.09.2018 09:00:00 4,6 2,3 4 2 - - NNE 1039,1 30
25.09.2018 08:00:00 1,0 0,9 4 2 - - ESE 1039,5 20
25.09.2018 07:00:00 0,7 0,6 4 2 - - S 1039,1 40
25.09.2018 06:00:00 1,7 1,6 7 4 - - SSW 1038,5 75
25.09.2018 05:00:00 1,5 1,4 7 4 - - S 1038,5 75
25.09.2018 04:00:00 0,9 0,7 7 4 - - S 1038,4 75
25.09.2018 03:00:00 2,1 1,8 4 2 - - SSW 1038,2 75
25.09.2018 02:00:00 4,4 1,7 4 2 - - N 1037,3 75
25.09.2018 01:00:00 4,5 2,0 11 6 - - S 1037,1 75
25.09.2018 00:00:00 5,0 2,4 7 4 - - WSW 1036,8 75
24.09.2018 23:00:00 4,3 1,8 7 4 - - SSW 1036,6 75
24.09.2018 22:00:00 6,4 1,9 4 2 - - N 1035,7 75
24.09.2018 21:00:00 8,1 1,8 7 4 - - WSW 1035,0 75
24.09.2018 20:00:00 9,2 1,9 7 4 - - WSW 1034,0 50
24.09.2018 19:00:00 10,5 0,9 11 6 - - NW 1033,1 50
24.09.2018 18:00:00 11,8 0,3 11 6 - - NW 1032,2 50
24.09.2018 17:00:00 12,4 0,5 14 8 - - W 1032,0 50
24.09.2018 16:00:00 12,2 1,1 14 8 - - W 1032,2 50
24.09.2018 15:00:00 11,4 0,7 14 8 - - W 1032,6 60
24.09.2018 14:00:00 10,9 0,8 14 8 - - W 1033,0 60
24.09.2018 13:00:00 10,0 1,4 14 8 - - WNW 1033,2 60
24.09.2018 12:00:00 10,3 2,7 18 10 - - WNW 1033,1 60
24.09.2018 11:00:00 9,1 4,0 14 8 - - W 1032,9 60
24.09.2018 10:00:00 8,1 4,0 14 8 - - W 1032,6 60
24.09.2018 09:00:00 7,6 4,4 11 6 - - W 1031,6 60
24.09.2018 08:00:00 6,9 4,8 11 6 - - WNW 1030,5 75
24.09.2018 07:00:00 6,8 4,9 7 4 - - W 1029,1 60
24.09.2018 06:00:00 7,2 5,3 14 8 - - WNW 1027,6 40
24.09.2018 05:00:00 7,5 6,4 11 6 - - WNW 1026,6 15
24.09.2018 04:00:00 7,9 7,2 14 8 - - NW 1025,7 10
24.09.2018 03:00:00 9,1 7,7 18 10 - - W 1024,9 15
24.09.2018 02:00:00 9,3 7,8 14 8 - - WNW 1024,2 15
24.09.2018 01:00:00 10,2 8,8 18 10 - - W 1022,5 15
24.09.2018 00:00:00 11,2 8,8 29 16 50 27 W 1019,5 15
23.09.2018 23:00:00 12,2 10,2 32 18 - - W 1014,8 15
23.09.2018 22:00:00 13,6 12,3 25 14 65 35 WSW 1012,6 15
23.09.2018 21:00:00 14,7 11,9 37 20 76 41 WNW 1010,2 8
23.09.2018 20:00:00 22,4 14,4 43 23 - - SW 1006,4 50
23.09.2018 19:00:00 23,1 14,0 25 14 54 29 SW 1006,0 75
23.09.2018 18:00:00 24,3 14,2 29 16 58 31 SW 1005,9 75
23.09.2018 17:00:00 24,6 14,4 36 19 - - SW 1007,4 75
23.09.2018 16:00:00 24,6 15,1 25 14 58 31 WSW 1008,4 75
23.09.2018 15:00:00 23,5 15,0 39 21 65 35 SW 1010,5 10
23.09.2018 14:00:00 21,9 14,4 36 19 - - SW 1012,2 75
23.09.2018 13:00:00 21,2 14,3 29 16 54 29 SW 1013,2 50
23.09.2018 12:00:00 - 13,3 29 16 54 29 - - 16
23.09.2018 11:00:00 17,8 12,4 32 18 - - SW 1015,1 15
23.09.2018 10:00:00 17,1 10,8 29 16 47 25 SW 1015,5 17
23.09.2018 09:00:00 15,6 10,5 25 14 - - SSW 1015,8 16
23.09.2018 08:00:00 14,5 11,7 22 12 - - SW 1016,5 15
23.09.2018 07:00:00 12,1 12,0 14 8 - - S 1017,5 9
23.09.2018 06:00:00 11,0 10,9 7 4 - - SE 1018,7 3,3
23.09.2018 05:00:00 11,0 10,9 7 4 - - S 1019,7 3,7
23.09.2018 04:00:00 10,8 10,7 11 6 - - SW 1020,7 4,4
23.09.2018 03:00:00 10,4 10,3 7 4 - - WSW 1021,4 3,5
23.09.2018 02:00:00 11,4 10,5 7 4 - - WSW 1021,9 6
23.09.2018 01:00:00 11,6 11,2 7 4 - - SSW 1021,5 14
23.09.2018 00:00:00 11,6 11,2 11 6 - - S 1021,1 9
22.09.2018 23:00:00 11,8 10,5 7 4 - - SSW 1021,3 18
22.09.2018 22:00:00 13,2 6,9 7 4 - - SW 1021,1 18
22.09.2018 21:00:00 12,7 7,5 7 4 - - SSW 1021,3 20
22.09.2018 20:00:00 14,7 4,5 7 4 - - SSW 1020,4 29
22.09.2018 19:00:00 15,4 4,0 7 4 - - SSW 1020,2 30
22.09.2018 18:00:00 16,1 3,1 14 8 - - SW 1020,4 35
22.09.2018 17:00:00 16,0 3,3 11 6 - - WSW 1020,8 40
22.09.2018 16:00:00 16,1 3,8 11 6 - - W 1021,4 29
22.09.2018 15:00:00 15,4 5,2 11 6 - - SSW 1021,9 17
22.09.2018 14:00:00 14,8 4,7 11 6 - - W 1023,1 24
22.09.2018 13:00:00 14,0 5,0 11 6 - - W 1023,8 21
22.09.2018 12:00:00 13,4 4,9 11 6 - - WSW 1024,4 21
22.09.2018 11:00:00 12,8 5,4 14 8 - - WSW 1024,9 20
22.09.2018 10:00:00 12,0 7,4 14 8 - - WSW 1025,1 19
22.09.2018 09:00:00 10,7 7,8 11 6 - - SW 1024,9 16
22.09.2018 08:00:00 9,5 7,5 11 6 - - SSW 1025,0 18
22.09.2018 07:00:00 9,8 6,6 7 4 - - SW 1024,9 21
22.09.2018 06:00:00 10,2 6,9 11 6 - - SW 1024,8 20
22.09.2018 05:00:00 10,9 7,4 11 6 - - WSW 1024,0 19
22.09.2018 04:00:00 11,2 7,8 11 6 - - SW 1023,8 18
22.09.2018 03:00:00 11,3 7,7 11 6 - - SW 1023,2 19
22.09.2018 02:00:00 11,6 7,8 14 8 - - SSW 1022,8 20
22.09.2018 01:00:00 11,8 8,2 11 6 - - SW 1022,2 18
22.09.2018 00:00:00 12,0 7,4 14 8 - - W 1020,9 19
21.09.2018 23:00:00 12,0 9,1 14 8 - - W 1020,3 18
21.09.2018 22:00:00 11,9 9,5 29 16 47 25 WNW 1018,8 13
21.09.2018 21:00:00 13,9 11,0 36 19 54 29 WNW 1016,8 14
21.09.2018 20:00:00 18,5 13,6 18 10 - - SW 1013,1 20
21.09.2018 19:00:00 21,4 12,4 25 14 47 25 WSW 1011,6 20
21.09.2018 18:00:00 23,4 12,0 18 10 - - WSW 1010,0 40
21.09.2018 17:00:00 24,3 11,3 18 10 - - SW 1009,4 50
21.09.2018 16:00:00 25,2 10,6 22 12 50 27 SW 1009,8 50
21.09.2018 15:00:00 25,8 10,6 29 16 50 27 SW 1010,1 50
21.09.2018 14:00:00 26,3 11,5 32 18 - - SW 1010,6 50
21.09.2018 13:00:00 25,4 11,6 25 14 - - SW 1011,2 50
21.09.2018 12:00:00 25,4 11,4 22 12 - - SW 1011,7 50
21.09.2018 11:00:00 23,3 12,9 14 8 - - SW 1012,3 50
21.09.2018 10:00:00 20,4 12,5 14 8 - - SSW 1013,3 50
21.09.2018 09:00:00 17,9 11,2 14 8 - - S 1013,7 50
21.09.2018 08:00:00 15,5 10,7 14 8 - - S 1014,4 50
21.09.2018 07:00:00 14,2 10,7 14 8 - - S 1014,5 40
21.09.2018 06:00:00 12,9 10,3 7 4 - - S 1015,0 40
21.09.2018 05:00:00 12,5 11,8 11 6 - - S 1015,7 40
21.09.2018 04:00:00 14,1 11,8 11 6 - - SSW 1015,5 40
21.09.2018 03:00:00 11,2 11,0 7 4 - - S 1016,4 40
21.09.2018 02:00:00 12,9 12,8 11 6 - - S 1016,5 40
21.09.2018 01:00:00 13,4 11,9 7 4 - - S 1016,8 40
21.09.2018 00:00:00 13,6 12,4 7 4 - - S 1017,4 50
20.09.2018 23:00:00 12,2 10,8 7 4 - - S 1018,3 50
20.09.2018 22:00:00 17,5 12,4 4 2 - - SSE 1017,2 50
20.09.2018 21:00:00 18,3 12,6 7 4 - - ESE 1017,1 50
20.09.2018 20:00:00 19,1 12,0 7 4 - - E 1016,9 50
20.09.2018 19:00:00 21,8 13,0 7 4 - - E 1016,2 50
20.09.2018 18:00:00 25,0 12,9 7 4 - - ENE 1015,9 50
20.09.2018 17:00:00 26,0 11,4 7 4 - - NE 1016,1 50
20.09.2018 16:00:00 26,6 10,8 7 4 - - SE 1016,5 50
20.09.2018 15:00:00 25,9 12,2 7 4 - - N 1017,2 50
20.09.2018 14:00:00 25,6 12,4 4 2 - - N 1017,9 50
20.09.2018 13:00:00 24,7 12,2 7 4 - - SSW 1018,6 50
20.09.2018 12:00:00 23,4 12,1 7 4 - - N 1019,6 50
20.09.2018 11:00:00 21,7 13,4 7 4 - - SSW 1020,4 50
20.09.2018 10:00:00 19,5 12,5 7 4 - - S 1020,9 50
20.09.2018 09:00:00 15,9 12,6 11 6 - - SSE 1021,6 50
20.09.2018 08:00:00 13,6 11,0 7 4 - - S 1022,1 40
20.09.2018 07:00:00 12,1 11,8 7 4 - - S 1022,2 40
20.09.2018 06:00:00 11,7 11,7 11 6 - - S 1022,2 50
20.09.2018 05:00:00 11,3 11,2 11 6 - - S 1022,3 50
20.09.2018 04:00:00 13,5 12,5 7 4 - - SSW 1021,8 50
20.09.2018 03:00:00 14,7 12,2 7 4 - - SSW 1021,4 50
20.09.2018 02:00:00 14,6 12,8 7 4 - - S 1021,7 50
20.09.2018 01:00:00 15,9 13,2 14 8 - - S 1021,3 50
20.09.2018 00:00:00 17,1 13,9 14 8 - - S 1021,4 50
19.09.2018 23:00:00 16,5 13,8 7 4 - - S 1021,7 50
19.09.2018 22:00:00 15,9 13,7 4 2 - - SSW 1021,8 60
19.09.2018 21:00:00 18,0 14,3 4 2 - - SSE 1020,9 60
19.09.2018 20:00:00 19,2 14,6 7 4 - - ENE 1020,3 50
19.09.2018 19:00:00 23,5 11,9 7 4 - - N 1019,1 50
19.09.2018 18:00:00 25,2 11,4 7 4 - - WNW 1018,4 50
19.09.2018 17:00:00 25,5 12,2 7 4 - - SSW 1018,4 50
19.09.2018 16:00:00 25,2 13,3 7 4 - - SW 1018,7 50

tt = Température de l'air
td = dewpoint
ff = Vitesse du vent
fx = gusts
dd = Direction du vent
ppp = reduced air pressure
vv = visibility

stations d'obs. à proximité